Location: Conflandey
(47.7287°N, 6.0456°E)
Time: 19:41:36
(UTC+00:00)

Cosmos 1602 Rocket - Pass Details

Date: 24 October 2021
Orbit: 603 x 633 km, 82.5° (Epoch: 04 December)

Event Time Altitude Azimuth Distance (km) Brightness Sun altitude
Rises 17:44:22 0° 354° (N) 2,888 7.0 -12.9°
Reaches altitude 10° 17:46:39 10° 359° (N) 1,974 6.1 -13.3°
Maximum altitude 17:50:55 52° 77° (ENE) 755 3.6 -14.0°
Drops below altitude 10° 17:55:08 10° 155° (SSE) 1,947 5.9 -14.7°
Sets 17:57:22 0° 160° (SSE) 2,844 6.8 -15.1°
